Location: Dana
(41.8364°N, 106.7042°W)
Time: 02:24:11
(UTC+00:00)

Transit 4A - Pass Details

Date: 16 May 2026
Orbit: 860 x 980 km, 66.8° (Epoch: 6 June)

Event Time Altitude Azimuth Distance (km) Brightness Sun altitude
Rises 15:43:11 0° 235° (SW) 3,549 10.6 42.2°
Reaches altitude 10° 15:45:52 10° 244° (WSW) 2,629 10.0 42.7°
Maximum altitude 15:51:30 37° 311° (NW) 1,439 8.9 43.7°
Drops below altitude 10° 15:57:19 10° 17° (NNE) 2,711 10.5 44.7°
Sets 16:00:08 0° 26° (NNE) 3,673 11.1 45.3°
